Probability
0 0 0 0 0 0 0 0 0 0 0 0 0 0 0 0 0 0 0 0 0 0 0 0 0 0 0 0 0 0 0 0 0 0 0 0 0 0 0 0 0 0 0
0 0 0 0 0 0 0 0 0 0 0 0 0 0 0 0 0 0 0 0 0 0 0 0 0 0 0 0 0 0 0 0 0 0 0 0 0 0 0 0 0 0 0
0 0 0 0 0 0 0 0 0 0 0 0 0 0 0 0 0 0 0 0 0 0 0 0 0 0 0 0 0 0 0 0 0 0 0 0 0 0 0 0 0 0 0
0 0 0 0 0 0 0 0 0 0 0 0 0 0 0 0 0 0 0 0 0 0 0 0 0 0 0 0 0 0 0 0 0 0 0 0 0 0 0 0 0 0 0
0 0 0 0 0 0 0 0 0 0 0 0 0 0 0 0 0 0 0 0 0 0 0 0 0 0 0 0 0 0 0 0 0 0 0 0 0 0 0 0 0 0 0
0 0 0 0 0 0 0 0 0 0 0 0 0 0 0 0 0 0 0 0 0 0 0 0 0 0 0 0 0 0 0 0 0 0 0 0 0 0 0 0 0 0 0
0 0 0 0 0 0 0 0 0 0 0 0 0 0 0 0 0 0 0 0 0 0 0 0 0 0 0 0 0 0 0 0 0 0 0 0 0 0 0 0 0 0 0
0 0 0 0 0 0 0 0 0 0 0 0 0 0 0 0 0 0 0 0 0 0 0 0 0 0 0 0 0 0 0 0 0 0 0 0 0 0 0 0 0 0 0
0 0 0 0 0 0 0 0 0 0 0 0 0 0 0 0 0 0 0 0 0 0 0 0 0 0 0 0 0 0 0 0 0 0 0 0 0 0 0 0 0 0 0
0 0 0 0 0 0 0 0 0 0 0 0 0 0 0 0 0 0 0 0 0 0 0 0 0 0 0 0 0 0 0 0 0 0 0 0 0 0 0 0 0 0 0
0 0 0 0 0 0 0 0 0 0 0 0 0 0 0 0 0 0 0 0 0 0 0 0 0 0 0 0 0 0 0 0 0 0 0 0 0 0 0 0 0 0 0
0 0 0 0 0 0 0 0 0 0 0 0 0 0 0 0 0 0 0 0 0 0 0 0 0 0 0 0 0 0 0 0 0 0 0 0 0 0 0 0 0 0 0
0 0 0 0 0 0 0 0 0 0 0 0 0 0 0 0 0 0 0 0 0 0 0 0 0 0 0 0 0 0 0 0 0 0 0 0 0 0 0 0 0 0 0
0 0 0 0 0 0 0 0 0 0 0 0 0 0 0 0 0 0 0 0 0 0 0 0 0 0 0 0 0 0 0 0 0 0 0 0 0 0 0 0 0 0 0
0 0 0 0 0 0 0 0 0 0 0 0 0 0 0 0 0 0 0 0 0 0 0 0 0 0 0 0 0 0 0 0 0 0 0 0 0 0 0 0 0 0 0
0 0 0 0 0 0 0 0 0 0 0 0 0 0 0 0 0 0 0 0 0 0 0 0 0 0 0 0 0 0 0 0 0 0 0 0 0 0 0 0 0 0 0
0 0 0 0 0 0 0 0 0 0 0 0 0 0 0 0 0 0 0 0 0 0 0 0 0 0 0 0 0 0 0 0 0 0 0 0 0 0 0 0 0 0 0
0 0 0 0 0 0 0 0 0 0 0 0 0 0 0 0 0 0 0 0 0 0 0 0 0 0 0 0 0 0 0 0 0 0 0 0 0 0 0 0 0 0 0
0 0 0 0 0 0 0 0 0 0 0 0 0 0 0 0 0 0 0 0 0 0 0 0 0 0 0 0 0 0 0 0 0 0 0 0 0 0 0 0 0 0 0
0 0 0 0 0 0 0 0 0 0 0 0 0 0 0 0 0 0 0 0 0 0 0 0 0 0 0 0 0 0 0 0 0 0 0 0 0 0 0 0 0 0 0
0 0 0 0 0 0 0 0 0 0 0 0 0 0 0 0 0 0 0 0 0 0 0 0 0 0 0 0 0 0 0 0 0 0 0 0 0 0 0 0 0 0 0
0 0 0 0 0 0 0 0 0 0 0 0 0 0 0 0 0 0 0 0 0 0 0 0 0 0 0 0 0 0 0 0 0 0 0 0 0 0 0 0 0 0 0
0 0 0 0 0 0 0 0 0 0 0 0 0 0 0 0 0 0 0 0 0 0 0 0 0 0 0 0 0 0 0 0 0 0 0 0 0 0 0 0 0 0 0
0 0 0 0 0 0 0 0 0 0 0 0 0 0 0 0 0 0 0 0 0 0 0 0 0 0 0 0 0 0 0 0 0 0 0 0 0 0 0 0 0 0 0
0 0 0 0 0 0 0 0 0 0 0 0 0 0 0 0 0 0 1 1 0 0 0 0 0 0 0 0 0 0 0 0 0 0 0 0 0 0 0 0 0 0 0
0 0 0 0 0 0 0 0 0 0 0 0 0 0 0 0 0 1 2 2 1 0 0 0 0 0 0 0 0 0 0 0 0 0 0 0 0 0 0 0 0 0 0
Wind_Speed
4 4 9 11 13 13 13 13 13 13 13 13 13 13 13 13 13 13 13 14 15 15 16 16 16 16 16 15 16 16 16 15 15 15 15 15 15 15 15 15 13 9 16
7 6 10 11 13 13 13 12 12 12 13 13 13 13 12 13 13 13 13 14 14 14 15 15 15 15 14 14 14 14 15 14 14 14 13 12 13 14 14 14 13 9 15
8 7 9 10 12 13 12 12 12 12 12 12 12 12 12 12 12 13 13 13 13 13 14 14 14 13 13 13 13 13 13 13 13 13 12 6 7 13 14 13 13 14 14
8 7 8 10 12 13 12 11 11 11 12 12 12 12 11 12 12 12 12 12 12 12 12 12 12 12 11 11 11 12 12 12 12 11 6 5 5 11 12 12 13 13 13
7 6 8 11 12 13 12 11 11 11 11 11 12 11 11 11 11 11 11 11 11 11 11 11 11 11 10 10 10 11 11 10 11 8 5 5 4 10 11 11 11 11 11
7 6 8 11 12 12 12 12 11 11 11 11 11 11 11 11 11 11 11 11 10 10 10 10 9 9 9 9 10 9 9 9 8 5 4 4 3 7 9 10 10 10 10
7 6 7 10 11 12 12 11 11 10 11 11 11 11 10 10 10 10 10 10 10 9 9 9 8 8 8 8 8 8 8 8 5 4 3 3 3 7 7 8 8 8 8
8 7 6 10 10 10 10 10 10 10 10 10 10 10 10 10 10 10 10 10 9 9 8 8 7 6 6 7 7 7 7 5 4 3 2 2 3 5 6 6 6 6 6
7 7 5 6 7 9 10 9 9 9 9 9 9 9 8 8 8 8 8 9 9 8 8 7 6 5 5 6 6 6 6 5 3 1 1 1 1 3 4 5 4 4 5
6 6 6 5 5 5 6 8 9 8 8 8 8 8 8 7 7 7 7 7 8 8 7 6 5 4 4 4 4 5 5 4 2 1 1 2 1 1 2 3 3 2 3
7 6 6 6 5 5 5 6 7 8 8 8 7 8 7 4 4 4 5 6 7 7 7 6 5 3 2 2 3 3 3 1 1 0 1 3 3 2 1 1 1 1 1
10 8 7 7 6 5 5 4 3 4 4 4 4 5 4 3 3 4 5 6 6 6 6 5 4 3 2 1 1 1 1 1 1 1 2 5 5 4 4 3 3 3 3
9 8 8 8 7 7 5 4 3 2 3 4 5 5 4 3 3 3 2 2 3 4 2 2 2 1 1 1 1 1 1 1 1 2 3 6 7 7 6 5 5 5 5
8 9 9 8 8 7 6 5 4 3 3 4 5 6 4 3 3 3 2 3 2 2 2 2 1 2 2 2 2 2 2 2 2 2 3 7 8 9 9 8 8 7 7
9 10 10 9 10 8 7 6 6 6 5 5 5 5 6 5 5 4 3 3 3 3 3 3 3 3 3 3 3 3 4 4 4 4 3 7 9 10 11 11 10 10 9
11 11 10 11 11 10 9 8 7 6 6 5 5 7 7 6 5 5 4 4 4 4 4 4 4 4 3 3 4 4 5 5 5 5 4 5 9 11 13 13 13 12 12
11 10 11 11 11 11 11 10 7 7 7 7 6 7 8 7 7 6 5 5 5 4 5 4 4 3 3 4 5 5 5 5 5 6 6 5 5 9 13 15 15 14 14
9 9 11 10 11 13 11 10 7 7 8 7 7 7 9 9 8 7 6 6 5 5 4 4 4 4 4 4 5 4 4 5 6 7 6 6 5 5 9 15 16 16 16
10 10 10 11 12 13 12 9 8 7 8 8 7 7 9 10 10 8 7 6 6 5 6 5 5 4 5 5 5 5 5 6 6 7 8 8 8 7 6 10 14 15 17
9 9 10 10 11 10 8 7 6 7 8 8 8 9 10 9 11 10 7 7 7 6 6 6 7 6 5 4 5 6 6 7 7 8 9 8 8 9 8 8 7 9 16
9 10 11 11 11 9 7 8 8 9 8 8 8 9 11 10 11 10 8 8 8 8 8 8 7 7 6 3 3 5 6 8 10 9 8 8 9 9 8 9 7 6 7
10 10 10 11 11 11 10 8 6 6 6 7 6 8 11 11 11 10 11 9 9 8 9 9 8 6 5 5 4 3 5 4 5 7 7 8 9 6 8 9 8 9 7
9 10 10 11 11 11 11 5 4 3 2 4 7 9 11 11 11 11 11 10 9 9 9 10 10 10 8 6 7 6 5 5 4 3 5 6 6 6 7 7 9 10 9
9 8 9 10 10 9 9 9 10 10 10 10 8 7 7 10 11 11 11 11 10 9 10 10 10 9 9 8 6 8 8 4 4 5 3 3 5 7 8 7 8 9 9
8 7 7 8 8 8 9 11 11 11 10 6 5 6 8 8 10 11 11 11 11 10 10 10 10 10 9 10 8 5 8 8 8 8 9 5 4 5 6 7 7 7 8
5 5 5 6 7 7 9 10 12 13 11 8 7 7 7 6 7 10 11 11 11 10 11 11 10 11 11 11 10 8 7 7 7 9 11 9 8 5 6 7 7 8 8
Wind_Direction
168 171 157 143 136 131 127 124 121 118 115 112 111 110 108 107 106 105 102 101 99 97 95 93 90 86 84 81 80 79 77 74 74 74 75 77 78 78 75 72 68 64 75
150 157 153 145 139 135 131 129 126 124 120 117 115 113 112 111 109 108 105 102 101 100 99 97 93 89 86 85 84 82 80 77 75 71 67 68 76 77 75 73 73 75 76
140 147 146 143 140 137 135 134 131 129 124 122 120 117 115 114 113 111 108 107 105 104 103 102 98 93 89 87 88 85 82 80 76 70 61 44 64 76 75 72 73 75 75
142 144 145 143 142 141 141 140 137 135 130 128 126 123 121 120 117 115 113 112 111 109 108 107 102 96 90 89 90 87 85 83 76 69 51 37 45 74 74 73 74 75 75
138 140 145 145 146 146 146 145 143 141 137 134 131 129 127 125 122 120 119 117 116 115 114 111 106 99 92 90 91 89 89 87 77 65 49 40 37 73 75 75 75 73 73
137 140 148 148 150 151 151 150 150 148 144 142 138 135 133 131 128 127 126 123 120 120 118 115 109 101 93 92 93 91 94 91 77 61 49 37 35 74 79 79 77 76 75
142 144 152 153 154 155 155 155 155 153 151 149 145 143 142 140 139 135 134 131 128 126 123 120 115 105 97 95 94 93 100 98 88 71 51 30 48 79 82 82 80 79 78
149 148 152 157 157 158 158 159 159 159 157 154 152 151 150 150 149 146 144 142 139 136 133 128 122 112 102 101 96 96 100 102 92 77 53 20 54 82 85 82 83 80 82
150 150 153 157 160 163 162 162 162 162 161 159 157 155 155 155 154 151 151 152 150 148 144 139 134 122 114 110 104 100 102 101 94 78 37 345 33 98 95 89 87 84 91
159 163 162 161 161 162 165 168 167 167 166 163 158 156 157 157 156 154 155 161 162 160 157 153 148 138 119 113 107 102 107 98 100 75 330 291 282 142 112 104 99 98 106
180 180 175 172 170 167 167 173 171 172 172 166 161 162 159 153 152 157 166 170 170 168 170 170 168 153 113 89 97 107 104 107 145 236 272 275 256 231 194 164 154 152 158
193 192 188 185 180 174 176 168 170 172 170 167 162 163 159 157 162 164 180 183 179 177 182 188 186 168 127 73 45 89 126 193 209 240 258 270 257 247 238 232 237 236 222
196 196 195 192 187 183 181 175 176 172 171 173 173 171 164 161 165 168 167 183 183 184 182 199 194 177 177 193 226 231 226 227 237 251 261 267 263 258 252 248 247 248 239
197 202 199 195 194 193 187 186 185 184 186 189 187 179 171 172 179 182 184 186 184 181 188 195 201 218 233 240 241 246 245 241 242 247 258 262 264 261 256 256 252 252 245
206 207 203 198 200 197 194 196 195 198 198 197 191 190 185 185 190 191 195 194 196 192 195 202 214 228 242 249 247 244 248 246 246 243 253 258 260 260 259 261 259 256 250
213 212 205 202 203 200 201 202 202 201 201 198 200 199 195 195 195 194 200 202 205 203 202 204 213 224 236 243 253 250 249 248 246 244 242 253 255 256 257 259 261 262 259
218 214 208 207 203 204 207 206 205 203 200 204 206 203 202 201 200 200 203 208 210 205 206 210 221 226 240 245 253 254 252 249 247 245 243 240 247 252 252 254 258 261 262
219 215 213 209 206 208 210 208 207 205 204 209 207 206 208 207 204 203 208 213 207 200 203 211 215 226 238 242 250 254 251 251 249 246 243 239 237 241 247 250 253 257 259
219 216 214 209 209 211 211 209 208 206 209 211 208 210 210 210 207 207 213 213 201 204 210 215 216 214 232 240 247 253 250 249 250 248 246 242 238 236 236 247 246 249 254
223 218 217 213 214 210 207 206 209 213 216 214 213 213 209 209 207 209 215 211 201 209 216 216 221 217 225 234 251 260 255 249 246 245 245 244 239 235 233 234 238 244 247
225 220 218 216 213 201 199 204 210 219 218 216 217 215 212 211 207 209 214 210 207 215 219 215 217 224 229 205 243 272 263 245 245 244 239 239 240 235 231 231 231 233 244
226 224 221 219 214 204 206 203 203 204 212 214 212 214 213 213 210 211 214 214 211 217 220 217 214 222 221 190 204 250 288 293 258 243 238 238 241 234 233 232 229 231 232
227 225 222 220 217 212 206 192 183 182 198 205 213 218 216 213 212 214 215 215 215 215 223 220 216 222 232 213 203 209 238 258 298 277 243 238 239 235 237 233 231 233 233
230 227 223 221 217 214 202 198 198 207 218 221 217 217 213 210 214 216 218 217 219 220 225 223 218 221 226 232 214 218 228 220 250 293 276 247 238 235 236 234 234 234 231
233 227 224 221 219 212 202 204 206 217 226 226 211 213 215 213 215 217 218 220 223 224 226 225 221 221 223 231 225 212 226 233 231 253 275 272 255 236 233 232 233 234 231
245 233 225 218 222 214 206 206 209 217 222 221 219 221 221 219 218 219 220 222 225 226 227 227 226 225 228 230 231 223 215 221 224 234 255 266 268 253 230 228 229 232 232